Location: Newark
(43.0000°N, 1.6781°W)
Time: 05:11:13
(UTC+00:00)

N. Korean satellite - Pass Details

Date: 08 December 2021
Orbit: 447 x 491 km, 97.3° (Epoch: 25 January)

Event Time Altitude Azimuth Distance (km) Brightness Sun altitude
Rises 06:02:39 0° 0° (N) 2,460 10.0 -14.6°
Reaches altitude 10° 06:04:52 10° 348° (NNW) 1,582 8.9 -14.2°
Maximum altitude 06:07:45 27° 289° (WNW) 907 7.3 -13.7°
Drops below altitude 10° 06:10:38 10° 231° (SW) 1,574 8.8 -13.2°
Sets 06:12:51 0° 218° (SW) 2,444 9.9 -12.8°
